Location: Newark
(51.2000°N, 58.6167°E)
Time: 08:23:09
(UTC+00:00)

Envisat - Pass Details

Date: 01 October 2020
Orbit: 764 x 766 km, 98.1° (Epoch: 23 October)

Event Time Altitude Azimuth Distance (km) Brightness Sun altitude
Rises 01:23:11 0° 21° (NNE) 3,245 6.6 -7.6°
Reaches altitude 10° 01:25:47 10° 33° (NNE) 2,313 6.0 -7.2°
Maximum altitude 01:30:13 30° 94° (E) 1,364 5.4 -6.5°
Drops below altitude 10° 01:34:38 10° 154° (SSE) 2,297 5.8 -5.8°
Sets 01:37:12 0° 165° (SSE) 3,218 6.4 -5.4°
